TANSEI 3 DEB

Satellite information

Favourite Embed

Satellite Type and Status

DEBRISIN ORBIT

Key statistics

Satellite TANSEI 3 DEB at a glance.

Uptime

17784

Days in orbit

Revolutions

≈ 10.9

Per day

Orbit

HEO

HEO

Inclination

65.4

Latest

Satellite identification and parameters

Extended collection of information and parameters for TANSEI 3 DEB.

Object identification

Identified? True

Debris? True

Object name: TANSEI 3 DEB

International designator: 1977-012L

Object number (NORAD): 19314

Object ID (CCSDS): 19314

Country: JAPAN (JPN)

Current information (Y/N): Y

RCS size: SMALL

Orbital parameters

Period: 132.64 minutes

Inclination: 65.3665 deg

SMA: 8615.411 km

Apoapsis: 3838.136 km

Periapsis: 636.416 km

RAAN: 316.811 deg

Eccentricy: 0.18581355

Argument of periapsis: 23.2822 deg

Mean anomaly: 344.2251 deg

Mean motion: 10.85647275 rev/day

Mean motion (dot): 0.0000038 rev/day2

B* drag term: 0.00048980827 1/REarth

Two-line elements (TLE)

Creation date: Oct. 26, 2025, 2:54 a.m.

Reference frame: TEME

Reference center: EARTH

Epoch: Oct. 25, 2025, 8:36 a.m. UTC

TLE line 0: 0 TANSEI 3 DEB

TLE line 1: 1 19314U 77012L 25298.35885504 .00000380 00000-0 48981-3 0 9993

TLE line 2: 2 19314 65.3665 316.8110 1858136 23.2822 344.2251 10.85647275543606

Live tracking on map

Real-time ground track for satellite TANSEI 3 DEB.

In-orbit conjunctions

A list of the most updated potential collisions computed for object TANSEI 3 DEB.

Target Orbit TCA Probability of collision Miss distance Type
COSMOS 2251 DEB LEO 2025-03-29 10:13:38 0.0001594378 77.0 (m) DEBRIS
FENGYUN 1C DEB SSO 2025-02-02 23:41:53 0.0001627534 238.0 (m) DEBRIS

Associated space launch

Japanese satellite used to test the new Mu-3H launch vehicle, experiment magnetic stabilization and ovserve UV radiation

TANSEI 3 DEB was lifted into orbit during the mission ‘Mu-3H | Tansei-3’, on board a Mu-3H space rocket.

The launch took place on Feb. 19, 1977, 5:15 a.m. from Mu Center.

For more information about the launch, click the button.

Launch to space Mu-3H | Tansei-3
Mu-3H | Tansei-3

Agency: N/A

Status: Launch Successful

Launch date: Feb. 19, 1977, 5:15 a.m. UTC

Rocket: Mu-3H

Launch pad: Mu Center

Location: Uchinoura Space Center, Japan

...

Latest news about this satellite

There are no fresh news available about this satellite. Check back as we update our databases every day.


Newsletter sign-up

Weekly statistics, charts and insights to help you stay on top of the space industry.